[[{"header":{"parameterUnit":"m.s-1","parameterCategory":1,"la1":30.2991,"la2":30.254,"lo1":-89.0895,"lo2":-89.0444,"dy":0.0017,"dx":0.0017,"nx":28,"ny":28,"refTime":"2025-03-12T21:00:00:Z","depth":0,"parameterNumber":2,"parameterNumberName":"U-component_of_WINDS"},"data":[0,0,0,0,0,0,0,0,0,0,0,0,0,0,0,0,0,0,0,0,0,0,0,0,0,0,0,0,0,0,0,0,0,0,0,0,0,0,0,0,0,0,0,0,0,0,0,0,0,0,0,0,0,0,0,0,0,0,-1.8843,-1.8842,0,-1.8772,-1.8772,-1.8771,-1.8688,-1.8687,-1.8686,-1.8685,-1.8611,-1.861,-1.8609,0,0,0,0,0,0,0,0,0,0,0,0,0,-1.8907,-1.8906,-1.8843,-1.8842,-1.8841,-1.8773,-1.8772,-1.8771,-1.8689,-1.8687,-1.8686,-1.8684,-1.8611,-1.861,-1.8609,0,0,0,0,0,0,0,0,0,0,0,0,0,-1.8862,-1.8906,-1.8843,-1.8792,-1.8787,-1.8773,-1.8771,-1.877,-1.8689,-1.8687,-1.8685,-1.8683,-1.8612,-1.861,-1.8609,-1.8639,0,0,-1.8606,-1.8605,0,0,0,0,0,0,0,0,-1.8865,-1.886,-1.8801,-1.8796,-1.879,-1.8737,-1.8767,-1.8726,-1.8689,-1.8726,-1.8685,-1.8683,-1.8654,-1.865,-1.864,-1.8636,-1.8632,-1.8605,-1.8605,-1.8604,-1.8604,0,0,0,0,0,0,0,-1.8868,-1.8862,-1.8815,-1.88,-1.8793,-1.8773,-1.8764,-1.8759,-1.8702,-1.8723,-1.8717,-1.8709,-1.8651,-1.8642,-1.8638,-1.8631,-1.8605,-1.8604,-1.8604,-1.8603,-1.8647,-1.8648,0,0,0,0,0,0,-1.8879,-1.8866,-1.8817,-1.8813,-1.8823,-1.8773,-1.8764,-1.8756,-1.8701,-1.8691,-1.8711,-1.8706,-1.8645,-1.864,-1.8635,-1.8665,-1.8604,-1.8603,-1.8602,-1.8645,-1.8647,-1.8649,0,0,0,0,0,0,-1.8881,-1.8875,-1.882,-1.8838,-1.8829,-1.8774,-1.8766,-1.8756,-1.8746,-1.8693,-1.8682,-1.8712,-1.8643,-1.8637,-1.8639,-1.8661,-1.8603,-1.8601,-1.8643,-1.8645,-1.8648,-1.8726,0,0,0,0,0,0,-1.8883,-1.8876,-1.8887,-1.8838,-1.8828,-1.8825,-1.8768,-1.8756,-1.8744,-1.8737,-1.8691,-1.8681,-1.8641,-1.8641,-1.8637,-1.8659,-1.86,-1.864,-1.8644,-1.8647,-1.8721,-1.8731,-1.874,0,0,0,0,0,-1.8885,-1.8912,-1.8888,-1.8883,-1.8841,-1.8827,-1.8821,-1.8775,-1.8747,-1.8757,-1.8723,-1.8683,-1.866,-1.8642,-1.8637,-1.8658,-1.8638,-1.8643,-1.8647,-1.8717,-1.8729,-1.874,0,0,0,0,0,0,-1.8964,-1.8905,-1.8877,-1.8889,-1.8864,-1.8813,-1.8824,-1.8789,-1.8771,-1.8764,-1.8708,-1.8698,-1.8706,-1.8683,-1.8663,-1.8684,-1.8643,-1.8647,-1.8698,-1.871,-1.8719,-1.8723,-1.8599,0,0,0,0,0,-1.8983,-1.8977,-1.8925,-1.8941,-1.8929,-1.888,-1.8872,-1.8838,-1.8809,-1.8798,-1.8764,-1.8737,-1.8723,-1.8716,-1.8701,-1.8719,-1.8706,-1.8731,-1.8741,-1.8748,-1.8751,-1.8758,-1.8768,-1.8663,-1.8663,-1.8663,0,0,-1.9022,-1.8989,-1.8988,-1.8956,-1.8932,-1.8926,-1.8871,-1.8867,-1.8862,-1.8797,-1.8796,-1.8771,-1.8737,-1.8747,-1.8749,-1.8727,-1.8778,-1.8754,-1.8761,-1.8759,-1.8763,-1.8773,-1.8782,-1.8666,-1.8665,-1.8665,0,0,-1.9089,-1.9064,-1.9073,-1.9051,-1.9016,-1.8983,-1.8985,-1.894,-1.892,-1.8919,-1.887,-1.8863,-1.8842,-1.882,-1.8806,-1.8866,-1.8828,-1.8863,-1.891,-1.8918,-1.8926,-1.8933,-1.8952,-1.896,-1.8866,-1.8867,-1.8867,0,-1.9141,-1.913,-1.9083,-1.9082,-1.9069,-1.9011,-1.902,-1.9,-1.8962,-1.8954,-1.8931,-1.8903,-1.8876,-1.8879,-1.8894,-1.8886,-1.8886,-1.8866,-1.8929,-1.8935,-1.8941,-1.8959,-1.8967,-1.8871,-1.887,-1.887,-1.887,0,-1.9196,-1.9189,-1.9201,-1.9166,-1.9155,-1.9159,-1.9111,-1.9106,-1.9074,-1.9043,-1.9042,-1.9009,-1.8986,-1.8985,-1.8954,-1.8983,-1.8971,-1.8939,-1.8897,-1.8956,-1.8972,-1.8978,-1.8877,-1.8876,-1.8874,-1.8873,0,0,-1.9308,-1.9247,-1.9252,-1.9235,-1.9193,-1.9187,-1.9189,-1.9166,-1.9162,-1.9139,-1.9137,-1.9122,-1.9092,-1.9076,-1.9043,-1.905,-1.9097,-1.9016,-1.9015,-1.9031,-1.9126,-1.9148,-1.9157,-1.9073,-1.9075,-1.9076,-1.9128,0,-1.9365,-1.9364,-1.9322,-1.9332,-1.9325,-1.9271,-1.9273,-1.9247,-1.9219,-1.9209,-1.9178,-1.9167,-1.913,-1.912,-1.9124,-1.9091,-1.9115,-1.9087,-1.907,-1.907,-1.9078,-1.9166,-1.9189,-1.924,-1.9134,-1.9135,-1.9136,0,-1.9431,-1.9412,-1.9422,-1.9379,-1.9375,-1.9377,-1.9352,-1.9344,-1.9314,-1.9293,-1.9276,-1.9239,-1.9237,-1.9199,-1.9196,-1.9177,-1.9169,-1.9151,-1.9152,-1.9147,-1.9105,-1.916,-1.9256,-1.9263,-1.9146,-1.9145,-1.9144,0,-1.951,-1.9486,-1.9488,-1.9476,-1.9427,-1.9429,-1.9409,-1.9377,-1.9367,-1.9346,-1.9338,-1.9318,-1.9307,-1.9292,-1.9249,-1.9226,-1.925,-1.9209,-1.9231,-1.9232,-1.9236,-1.9236,-1.9329,-1.9236,-1.9236,-1.9235,-1.9235,0,-1.9576,-1.9584,-1.9523,-1.9524,-1.9531,-1.9483,-1.9491,-1.9466,-1.9438,-1.9433,-1.9387,-1.9383,-1.9329,-1.9319,-1.9286,-1.9287,-1.9283,-1.9265,-1.9256,-1.9268,-1.927,-1.9259,-1.9254,-1.9237,-1.9237,-1.9237,-1.9236,0,-1.9664,-1.9623,-1.9622,-1.9576,-1.9565,-1.9572,-1.9532,-1.9531,-1.9502,-1.9496,-1.9492,-1.9445,-1.9431,-1.9388,-1.9364,-1.9342,-1.9352,-1.9336,-1.9362,-1.9355,-1.9379,-1.9376,-1.9466,-1.9475,-1.9379,-1.938,-1.9381,0,-1.9707,-1.9712,-1.9667,-1.966,-1.9642,-1.9633,-1.9621,-1.9575,-1.9565,-1.9532,-1.9535,-1.9518,-1.9501,-1.9482,-1.9444,-1.9426,-1.9407,-1.944,-1.9404,-1.9416,-1.9405,-1.9404,-1.9404,-1.9447,-1.9448,-1.9449,-1.945,0,-1.9789,-1.9769,-1.9755,-1.9734,-1.9722,-1.9704,-1.9682,-1.968,-1.9627,-1.9619,-1.9605,-1.9592,-1.9567,-1.955,-1.9526,-1.9504,-1.9468,-1.9463,-1.9466,-1.9477,-1.9491,-1.9481,-1.938,-1.946,-1.9459,-1.9458,-1.9458,-1.9457,-1.9854,-1.9856,-1.9824,-1.981,-1.9789,-1.977,-1.9767,-1.9737,-1.9724,-1.97,-1.9674,-1.9662,-1.9632,-1.9595,-1.9577,-1.9567,-1.9547,-1.9553,-1.9554,-1.9556,-1.9561,-1.9495,-1.9563,-1.9562,-1.9562,-1.9562,-1.9561,0,-1.9931,-1.9909,-1.9896,-1.9868,-1.9857,-1.9826,-1.9801,-1.9793,-1.9783,-1.9759,-1.9744,-1.9727,-1.971,-1.9673,-1.9653,-1.9652,-1.9635,-1.9648,-1.9646,-1.9642,-1.958,-1.9578,-1.9662,-1.9662,-1.9662,-1.9662,-1.9662,-1.9662,-1.997,-1.997,-1.9947,-1.9936,-1.9913,-1.9901,-1.9889,-1.9872,-1.9852,-1.9835,-1.9821,-1.9797,-1.9767,-1.9745,-1.9728,-1.9718,-1.9711,-1.9729,-1.9713,-1.9656,-1.9646,-1.9637,-1.9634,-1.9729,-1.9729,-1.9775,-1.9776,-1.9776]},{"header":{"parameterUnit":"m.s-1","parameterCategory":1,"la1":30.2991,"la2":30.254,"lo1":-89.0895,"lo2":-89.0444,"dy":0.0017,"dx":0.0017,"nx":28,"ny":28,"refTime":"2025-03-12T21:00:00:Z","depth":0,"parameterNumber":3,"parameterNumberName":"V-component_of_WINDS"},"data":[0,0,0,0,0,0,0,0,0,0,0,0,0,0,0,0,0,0,0,0,0,0,0,0,0,0,0,0,0,0,0,0,0,0,0,0,0,0,0,0,0,0,0,0,0,0,0,0,0,0,0,0,0,0,0,0,0,0,4.3153,4.3153,0,4.3097,4.3096,4.3096,4.3098,4.3099,4.31,4.31,4.3037,4.3034,4.3032,0,0,0,0,0,0,0,0,0,0,0,0,0,4.3259,4.3257,4.3154,4.3153,4.3152,4.3097,4.3096,4.3096,4.3098,4.3099,4.31,4.3101,4.3038,4.3035,4.3032,0,0,0,0,0,0,0,0,0,0,0,0,0,4.3209,4.3257,4.3154,4.3147,4.3146,4.3097,4.3096,4.3095,4.3098,4.3099,4.31,4.3101,4.3039,4.3035,4.3031,4.2984,0,0,4.302,4.3019,0,0,0,0,0,0,0,0,4.3212,4.3205,4.3149,4.3147,4.3146,4.3106,4.311,4.3058,4.3097,4.3116,4.31,4.3102,4.3058,4.3053,4.304,4.2981,4.2979,4.302,4.3018,4.3016,4.3015,0,0,0,0,0,0,0,4.3215,4.3208,4.3131,4.3148,4.3146,4.3145,4.3139,4.31,4.3081,4.3114,4.3114,4.3108,4.3058,4.3043,4.3038,4.2978,4.302,4.3017,4.3014,4.3013,4.288,4.2879,0,0,0,0,0,0,4.3221,4.321,4.3133,4.3129,4.3183,4.3142,4.3136,4.3117,4.3081,4.3077,4.3107,4.3108,4.3049,4.3043,4.3036,4.298,4.3016,4.3013,4.3011,4.2881,4.288,4.2878,0,0,0,0,0,0,4.3223,4.3214,4.3135,4.317,4.316,4.3139,4.3118,4.3116,4.3101,4.3076,4.3072,4.3096,4.305,4.3041,4.2998,4.2978,4.3011,4.3008,4.2883,4.2881,4.2879,4.2867,0,0,0,0,0,0,4.3226,4.3215,4.3198,4.317,4.3158,4.3099,4.3117,4.3114,4.3095,4.3097,4.3064,4.306,4.305,4.3004,4.2994,4.2974,4.3005,4.2885,4.2882,4.288,4.2869,4.2865,4.2862,0,0,0,0,0,4.323,4.3195,4.3197,4.3187,4.3136,4.3098,4.3091,4.3082,4.3094,4.3076,4.306,4.3061,4.2982,4.2999,4.2989,4.2967,4.2886,4.2883,4.288,4.2871,4.2866,4.2862,0,0,0,0,0,0,4.3218,4.3191,4.3193,4.3148,4.3126,4.3099,4.3076,4.3076,4.3049,4.3051,4.3039,4.3031,4.2989,4.2973,4.2993,4.292,4.2935,4.293,4.2932,4.2927,4.2923,4.2928,4.3002,0,0,0,0,0,4.3211,4.3184,4.3161,4.3123,4.3112,4.3096,4.3079,4.3074,4.305,4.304,4.302,4.2995,4.2965,4.2945,4.2915,4.2867,4.2861,4.2847,4.2843,4.284,4.2835,4.281,4.2804,4.2868,4.2868,4.2868,0,0,4.3194,4.3176,4.3159,4.312,4.3103,4.3074,4.3088,4.3056,4.3035,4.3034,4.2993,4.2978,4.2949,4.2904,4.2883,4.289,4.2817,4.2836,4.2834,4.2831,4.2807,4.2801,4.2795,4.2866,4.2867,4.2867,0,0,4.315,4.3134,4.3102,4.3084,4.3058,4.3048,4.3041,4.3014,4.3005,4.2964,4.2964,4.2937,4.2884,4.2865,4.2848,4.2799,4.2799,4.2789,4.2769,4.2744,4.2739,4.2735,4.2719,4.2713,4.2785,4.2785,4.2785,0,4.3133,4.3091,4.3084,4.3054,4.3037,4.3038,4.3005,4.2988,4.2952,4.294,4.2949,4.2885,4.2865,4.2816,4.2805,4.279,4.2781,4.2793,4.2741,4.2736,4.2732,4.2716,4.271,4.2784,4.2784,4.2784,4.2784,0,4.3071,4.3043,4.302,4.2989,4.2969,4.2937,4.2925,4.2906,4.2903,4.2891,4.285,4.2828,4.2794,4.2782,4.2778,4.2733,4.2738,4.2744,4.2759,4.2725,4.271,4.2704,4.2783,4.2783,4.2783,4.2783,0,0,4.3017,4.2985,4.2977,4.2964,4.2936,4.2913,4.2881,4.2851,4.2836,4.2811,4.2785,4.2741,4.2747,4.2728,4.2722,4.27,4.2665,4.2709,4.2708,4.2702,4.2615,4.2612,4.2605,4.2665,4.2664,4.2663,4.2618,0,4.2971,4.2918,4.2912,4.2863,4.2837,4.2838,4.2811,4.2791,4.2779,4.2754,4.2741,4.2712,4.2721,4.271,4.2689,4.2674,4.2647,4.2676,4.2639,4.2638,4.2648,4.2597,4.2593,4.2552,4.2612,4.2611,4.261,0,4.291,4.2888,4.2838,4.2816,4.2805,4.278,4.2753,4.273,4.2706,4.27,4.268,4.2677,4.2643,4.266,4.2614,4.2634,4.2619,4.2609,4.2607,4.2604,4.2623,4.2593,4.2538,4.2533,4.2601,4.2602,4.2602,0,4.2877,4.2834,4.2799,4.2788,4.2761,4.2744,4.2732,4.271,4.2693,4.2669,4.2658,4.2629,4.2613,4.2591,4.258,4.2593,4.2535,4.255,4.2528,4.2529,4.2516,4.2517,4.2459,4.2505,4.2505,4.2505,4.2505,0,4.2827,4.2796,4.2785,4.2763,4.2729,4.2722,4.2688,4.2676,4.2658,4.2633,4.2631,4.2608,4.2595,4.257,4.2561,4.2525,4.2517,4.2511,4.2509,4.2511,4.2513,4.2501,4.2504,4.2504,4.2504,4.2504,4.2505,0,4.2785,4.2775,4.2738,4.2717,4.2711,4.2687,4.2668,4.2647,4.2637,4.2606,4.2598,4.2582,4.2552,4.2539,4.2502,4.2496,4.2455,4.2455,4.2464,4.2463,4.2443,4.2446,4.2376,4.2367,4.2418,4.2418,4.2417,0,4.2754,4.2731,4.2708,4.2693,4.2681,4.2656,4.264,4.2632,4.2615,4.2588,4.257,4.2541,4.2518,4.247,4.2454,4.2426,4.2425,4.2403,4.2421,4.2425,4.2426,4.2428,4.2426,4.24,4.2399,4.2399,4.2398,0,4.27,4.2697,4.2675,4.2651,4.2632,4.2613,4.2593,4.258,4.2569,4.255,4.2521,4.2503,4.2467,4.2438,4.2409,4.2395,4.2395,4.2393,4.2387,4.2389,4.2396,4.2394,4.2456,4.2395,4.2395,4.2395,4.2395,4.2396,4.2663,4.2644,4.2626,4.2601,4.2586,4.2569,4.2549,4.2538,4.2514,4.2486,4.2482,4.2451,4.243,4.2392,4.2377,4.2352,4.2357,4.2348,4.2345,4.2343,4.2343,4.24,4.2346,4.2346,4.2346,4.2347,4.2347,0,4.261,4.26,4.2577,4.2552,4.2533,4.2536,4.2516,4.2499,4.2473,4.2454,4.2432,4.2399,4.2372,4.2354,4.2327,4.231,4.231,4.2303,4.2305,4.2302,4.2339,4.2348,4.2305,4.2305,4.2305,4.2305,4.2305,4.2305,4.2581,4.2549,4.2545,4.2505,4.2494,4.2466,4.2454,4.2438,4.2423,4.2388,4.2366,4.2356,4.2338,4.2309,4.2284,4.228,4.227,4.2263,4.2259,4.2294,4.2299,4.2303,4.2312,4.2261,4.2261,4.2224,4.2224,4.2224]}]]